UAL417 KLAX-PHOG

Flight info

Callsign UAL417
Flight time 5h 38m
Altitude 32000
Route SUMMR2 FICKY R578 FOOTS 2755N12800W FIZEL/N0462F340 R578 FITES LAVAS1
Aircraft B38M/M-SDE1FGHILORVWXY/HB1

Departure

Time 2026-04-22 18:56
Airport Los Angeles International Airport (KLAX)

Arrival

Time 2026-04-23 00:34
Airport Kahului International Airport (PHOG)
Time Latitude Longitude Altitude Speed Heading
2026-04-22 18:11 33.94038 -118.39905 98 ft 0 kts 353°
2026-04-22 18:44 33.94030 -118.39904 96 ft 4 kts 353°
2026-04-22 18:45 33.94003 -118.39900 95 ft 4 kts 353°
2026-04-22 18:45 33.93986 -118.39899 95 ft 4 kts 12°
2026-04-22 18:45 33.93971 -118.39914 95 ft 4 kts 77°
2026-04-22 18:45 33.93967 -118.39944 96 ft 3 kts 83°
2026-04-22 18:46 33.93967 -118.39949 96 ft 0 kts 83°
2026-04-22 18:49 33.93969 -118.39918 95 ft 10 kts 84°
2026-04-22 18:50 33.93984 -118.39772 98 ft 24 kts 82°
2026-04-22 18:50 33.94005 -118.39564 96 ft 26 kts 83°
2026-04-22 18:50 33.94020 -118.39423 95 ft 0 kts 84°
2026-04-22 18:51 33.94023 -118.39390 95 ft 9 kts 84°
2026-04-22 18:51 33.94036 -118.39263 95 ft 22 kts 83°
2026-04-22 18:51 33.94054 -118.39067 97 ft 22 kts 89°
2026-04-22 18:51 33.94067 -118.38878 96 ft 23 kts 82°
2026-04-22 18:52 33.94089 -118.38662 98 ft 30 kts 83°
2026-04-22 18:52 33.94113 -118.38427 99 ft 20 kts 83°
2026-04-22 18:52 33.94115 -118.38350 98 ft 2 kts 97°
2026-04-22 18:53 33.94109 -118.38347 98 ft 1 kts 164°
2026-04-22 18:53 33.94067 -118.38340 97 ft 12 kts 168°
2026-04-22 18:53 33.94016 -118.38331 101 ft 0 kts 174°
2026-04-22 18:54 33.93998 -118.38329 102 ft 7 kts 175°
2026-04-22 18:54 33.93952 -118.38374 100 ft 11 kts 251°
2026-04-22 18:54 33.93940 -118.38462 102 ft 11 kts 263°
2026-04-22 18:54 33.93928 -118.38554 101 ft 12 kts 260°
2026-04-22 18:55 33.93920 -118.38653 100 ft 13 kts 263°
2026-04-22 18:55 33.93899 -118.38864 98 ft 53 kts 263°
2026-04-22 18:55 33.93826 -118.39575 102 ft 116 kts 263°
2026-04-22 18:55 33.93701 -118.40749 134 ft 162 kts 263°
2026-04-22 18:56 33.93539 -118.42169 503 ft 181 kts 261°
2026-04-22 18:56 33.93342 -118.43707 1202 ft 191 kts 261°
2026-04-22 18:56 33.93175 -118.45302 1688 ft 199 kts 263°
2026-04-22 18:56 33.92973 -118.47152 1660 ft 247 kts 264°
2026-04-22 18:57 33.92842 -118.49212 2662 ft 245 kts 264°
2026-04-22 18:57 33.92699 -118.51298 3491 ft 256 kts 265°
2026-04-22 18:57 33.92537 -118.53436 4494 ft 253 kts 266°
2026-04-22 18:57 33.92377 -118.55548 5453 ft 256 kts 265°
2026-04-22 18:58 33.92200 -118.57713 6294 ft 260 kts 266°
2026-04-22 18:58 33.92023 -118.59861 7137 ft 263 kts 266°
2026-04-22 18:58 33.91841 -118.62066 7994 ft 264 kts 266°
2026-04-22 18:58 33.91800 -118.64282 8853 ft 264 kts 272°
2026-04-22 18:59 33.91802 -118.66510 9707 ft 266 kts 271°
2026-04-22 18:59 33.91794 -118.68734 10383 ft 274 kts 271°
2026-04-22 18:59 33.91781 -118.71106 10692 ft 294 kts 271°
2026-04-22 18:59 33.91765 -118.73653 10942 ft 314 kts 270°
2026-04-22 19:00 33.91746 -118.76359 11241 ft 330 kts 270°
2026-04-22 19:00 33.91724 -118.79167 11753 ft 337 kts 270°
2026-04-22 19:00 33.91703 -118.81985 12519 ft 338 kts 270°
2026-04-22 19:00 33.91760 -118.84830 13170 ft 340 kts 272°
2026-04-22 19:01 33.91848 -118.87686 13841 ft 343 kts 272°
2026-04-22 19:01 33.91930 -118.90561 14436 ft 345 kts 272°
2026-04-22 19:01 33.92010 -118.93460 15045 ft 346 kts 272°
2026-04-22 19:01 33.92088 -118.96338 15619 ft 348 kts 272°
2026-04-22 19:02 33.92136 -118.99255 16187 ft 350 kts 266°
2026-04-22 19:02 33.91583 -119.02117 16774 ft 354 kts 249°
2026-04-22 19:02 33.90336 -119.04702 17333 ft 359 kts 240°
2026-04-22 19:02 33.88962 -119.07188 17866 ft 362 kts 240°
2026-04-22 19:03 33.87544 -119.09699 18425 ft 363 kts 239°
2026-04-22 19:03 33.86104 -119.12217 18898 ft 366 kts 239°
2026-04-22 19:03 33.84650 -119.14736 19364 ft 367 kts 239°
2026-04-22 19:03 33.83184 -119.17265 19832 ft 369 kts 239°
2026-04-22 19:04 33.81709 -119.19802 20284 ft 371 kts 238°
2026-04-22 19:04 33.80225 -119.22352 20733 ft 373 kts 238°
2026-04-22 19:04 33.78728 -119.24923 21175 ft 375 kts 238°
2026-04-22 19:04 33.77226 -119.27500 21570 ft 378 kts 238°
2026-04-22 19:05 33.75712 -119.30095 21997 ft 379 kts 238°
2026-04-22 19:05 33.74206 -119.32675 22408 ft 381 kts 238°
2026-04-22 19:05 33.72677 -119.35291 22825 ft 383 kts 238°
2026-04-22 19:05 33.71141 -119.37919 23240 ft 385 kts 238°
2026-04-22 19:06 33.69594 -119.40564 23666 ft 387 kts 238°
2026-04-22 19:06 33.68043 -119.43215 24006 ft 389 kts 238°
2026-04-22 19:06 33.66480 -119.45883 24330 ft 391 kts 238°
2026-04-22 19:07 33.63333 -119.51248 24985 ft 395 kts 238°
2026-04-22 19:07 33.61746 -119.53951 25306 ft 397 kts 238°
2026-04-22 19:07 33.60152 -119.56664 25594 ft 399 kts 238°
2026-04-22 19:07 33.58568 -119.59357 25889 ft 401 kts 238°
2026-04-22 19:08 33.56955 -119.62099 26195 ft 403 kts 238°
2026-04-22 19:08 33.55328 -119.64861 26500 ft 405 kts 238°
2026-04-22 19:08 33.53704 -119.67617 26796 ft 406 kts 238°
2026-04-22 19:08 33.52070 -119.70388 27096 ft 408 kts 238°
2026-04-22 19:09 33.50422 -119.73180 27384 ft 410 kts 238°
2026-04-22 19:09 33.48785 -119.75950 27658 ft 412 kts 238°
2026-04-22 19:09 33.47666 -119.77844 27846 ft 413 kts 238°
2026-04-22 19:09 33.45463 -119.81568 28204 ft 415 kts 238°
2026-04-22 19:10 33.43786 -119.84401 28477 ft 417 kts 239°
2026-04-22 19:10 33.42105 -119.87237 28751 ft 418 kts 239°
2026-04-22 19:10 33.40417 -119.90083 29023 ft 420 kts 239°
2026-04-22 19:10 33.38720 -119.92945 29386 ft 419 kts 239°
2026-04-22 19:11 33.37036 -119.95780 29785 ft 418 kts 239°
2026-04-22 19:11 33.35372 -119.98579 30151 ft 417 kts 239°
2026-04-22 19:11 33.33702 -120.01387 30614 ft 412 kts 239°
2026-04-22 19:11 33.32049 -120.04165 31057 ft 408 kts 239°
2026-04-22 19:12 33.30408 -120.06919 31495 ft 404 kts 239°
2026-04-22 19:12 33.28789 -120.09635 31926 ft 399 kts 239°
2026-04-22 19:12 33.27174 -120.12341 32229 ft 398 kts 239°
2026-04-22 19:13 33.23991 -120.17671 32248 ft 390 kts 239°
2026-04-22 19:13 33.20834 -120.22949 32244 ft 391 kts 239°
2026-04-22 19:14 33.17668 -120.28236 32244 ft 391 kts 239°
2026-04-22 19:14 33.14519 -120.33486 32249 ft 391 kts 239°
2026-04-22 19:15 33.11884 -120.37874 32251 ft 391 kts 239°
2026-04-22 19:15 33.08178 -120.44036 32248 ft 390 kts 239°
2026-04-22 19:16 33.05030 -120.49262 32249 ft 390 kts 239°
2026-04-22 19:16 33.01863 -120.54513 32251 ft 390 kts 239°
2026-04-22 19:17 32.98689 -120.59767 32253 ft 390 kts 239°
2026-04-22 19:17 32.95533 -120.64984 32252 ft 390 kts 239°
2026-04-22 19:18 32.92362 -120.70220 32242 ft 389 kts 239°
2026-04-22 19:18 32.89196 -120.75438 32252 ft 388 kts 239°
2026-04-22 19:19 32.86030 -120.80650 32252 ft 388 kts 239°
2026-04-22 19:19 32.82866 -120.85853 32258 ft 388 kts 239°
2026-04-22 19:20 32.79714 -120.91027 32254 ft 388 kts 239°
2026-04-22 19:20 32.76535 -120.96237 32254 ft 388 kts 239°
2026-04-22 19:21 32.73365 -121.01428 32255 ft 388 kts 239°
2026-04-22 19:21 32.70208 -121.06589 32259 ft 388 kts 239°
2026-04-22 19:22 32.67034 -121.11771 32261 ft 388 kts 239°
2026-04-22 19:22 32.64372 -121.16111 32260 ft 388 kts 239°
2026-04-22 19:23 32.61207 -121.21266 32262 ft 388 kts 239°
2026-04-22 19:23 32.58020 -121.26448 32257 ft 388 kts 239°
2026-04-22 19:24 32.54839 -121.31614 32263 ft 388 kts 239°
2026-04-22 19:24 32.51655 -121.36778 32241 ft 388 kts 239°
2026-04-22 19:25 32.48466 -121.41942 32262 ft 388 kts 239°
2026-04-22 19:25 32.45300 -121.47064 32264 ft 387 kts 239°
2026-04-22 19:26 32.42110 -121.52216 32260 ft 388 kts 239°
2026-04-22 19:26 32.38920 -121.57360 32268 ft 387 kts 239°
2026-04-22 19:27 32.35731 -121.62497 32268 ft 387 kts 239°
2026-04-22 19:27 32.32535 -121.67638 32273 ft 387 kts 239°
2026-04-22 19:28 32.29362 -121.72735 32267 ft 387 kts 239°
2026-04-22 19:28 32.26168 -121.77859 32273 ft 387 kts 239°
2026-04-22 19:29 32.22966 -121.82988 32268 ft 388 kts 239°
2026-04-22 19:29 32.19757 -121.88123 32280 ft 388 kts 239°
2026-04-22 19:30 32.17086 -121.92390 32270 ft 388 kts 239°
2026-04-22 19:30 32.13352 -121.98349 32275 ft 388 kts 239°
2026-04-22 19:31 32.10142 -122.03465 32276 ft 388 kts 239°
2026-04-22 19:31 32.06921 -122.08589 32273 ft 390 kts 239°
2026-04-22 19:32 32.03684 -122.13735 32276 ft 390 kts 239°
2026-04-22 19:32 32.00445 -122.18875 32274 ft 390 kts 239°
2026-04-22 19:33 31.97206 -122.24008 32278 ft 390 kts 239°
2026-04-22 19:33 31.93956 -122.29151 32279 ft 390 kts 239°
2026-04-22 19:34 31.90729 -122.34252 32282 ft 390 kts 238°
2026-04-22 19:34 31.87479 -122.39382 32280 ft 391 kts 238°
2026-04-22 19:35 31.84221 -122.44519 32281 ft 391 kts 238°
2026-04-22 19:35 31.80968 -122.49640 32282 ft 391 kts 238°
2026-04-22 19:36 31.77708 -122.54765 32285 ft 391 kts 238°
2026-04-22 19:36 31.74467 -122.59854 32284 ft 391 kts 238°
2026-04-22 19:37 31.71203 -122.64971 32280 ft 391 kts 238°
2026-04-22 19:37 31.67930 -122.70097 32284 ft 391 kts 238°
2026-04-22 19:38 31.64654 -122.75219 32280 ft 393 kts 238°
2026-04-22 19:38 31.61392 -122.80314 32284 ft 393 kts 238°
2026-04-22 19:39 31.58108 -122.85437 32291 ft 392 kts 238°
2026-04-22 19:39 31.54826 -122.90549 32283 ft 392 kts 238°
2026-04-22 19:40 31.51534 -122.95669 32288 ft 393 kts 238°
2026-04-22 19:40 31.48244 -123.00781 32289 ft 392 kts 238°
2026-04-22 19:41 31.44966 -123.05857 32294 ft 392 kts 238°
2026-04-22 19:41 31.41676 -123.10963 32290 ft 393 kts 238°
2026-04-22 19:42 31.38379 -123.16068 32284 ft 393 kts 238°
2026-04-22 19:42 31.35073 -123.21180 32292 ft 393 kts 238°
2026-04-22 19:43 31.30134 -123.28802 32290 ft 393 kts 238°
2026-04-22 19:43 31.26830 -123.33894 32290 ft 393 kts 238°
2026-04-22 19:44 31.23522 -123.38986 32290 ft 393 kts 238°
2026-04-22 19:44 31.20233 -123.44042 32290 ft 393 kts 238°
2026-04-22 19:45 31.16922 -123.49125 32292 ft 393 kts 238°
2026-04-22 19:45 31.13600 -123.54206 32291 ft 394 kts 236°
2026-04-22 19:46 31.09726 -123.58767 32293 ft 399 kts 231°
2026-04-22 19:46 31.05760 -123.63303 32290 ft 399 kts 231°
2026-04-22 19:47 31.01792 -123.67828 32291 ft 399 kts 231°
2026-04-22 19:47 30.97817 -123.72354 32288 ft 399 kts 231°
2026-04-22 19:48 30.93831 -123.76887 32293 ft 399 kts 231°
2026-04-22 19:48 30.89853 -123.81405 32293 ft 399 kts 231°
2026-04-22 19:49 30.85894 -123.85897 32277 ft 400 kts 230°
2026-04-22 19:49 30.81890 -123.90434 32290 ft 401 kts 230°
2026-04-22 19:50 30.77888 -123.94966 32290 ft 401 kts 231°
2026-04-22 19:50 30.73890 -123.99486 32295 ft 401 kts 230°
2026-04-22 19:51 30.69908 -124.03978 32292 ft 401 kts 230°
2026-04-22 19:51 30.65903 -124.08494 32292 ft 401 kts 230°
2026-04-22 19:52 30.61890 -124.13013 32292 ft 401 kts 230°
2026-04-22 19:52 30.57903 -124.17498 32294 ft 401 kts 230°
2026-04-22 19:53 30.53890 -124.22006 32288 ft 401 kts 230°
2026-04-22 19:53 30.49877 -124.26509 32288 ft 402 kts 230°
2026-04-22 19:54 30.45844 -124.31029 32291 ft 402 kts 230°
2026-04-22 19:54 30.41838 -124.35513 32293 ft 402 kts 230°
2026-04-22 19:55 30.37800 -124.40028 32292 ft 402 kts 230°
2026-04-22 19:55 30.33770 -124.44528 32293 ft 402 kts 230°
2026-04-22 19:56 30.29738 -124.49025 32284 ft 402 kts 229°
2026-04-22 19:56 30.25703 -124.53521 32289 ft 403 kts 229°
2026-04-22 19:57 30.21665 -124.58013 32291 ft 403 kts 229°
2026-04-22 19:57 30.17640 -124.62486 32273 ft 403 kts 229°
2026-04-22 19:58 30.13580 -124.66993 32292 ft 405 kts 229°
2026-04-22 19:58 30.09513 -124.71502 32294 ft 405 kts 229°
2026-04-22 20:00 29.95293 -124.87225 32289 ft 405 kts 229°
2026-04-22 20:01 29.91243 -124.91691 32295 ft 405 kts 229°
2026-04-22 20:01 29.87161 -124.96187 32290 ft 405 kts 229°
2026-04-22 20:02 29.83086 -125.00669 32287 ft 405 kts 229°
2026-04-22 20:02 29.79037 -125.05119 32290 ft 405 kts 229°
2026-04-22 20:03 29.74957 -125.09597 32293 ft 404 kts 229°
2026-04-22 20:03 29.70881 -125.14065 32293 ft 405 kts 228°
2026-04-22 20:04 29.66802 -125.18531 32294 ft 404 kts 228°
2026-04-22 20:04 29.62720 -125.22995 32295 ft 404 kts 228°
2026-04-22 20:05 29.58664 -125.27425 32293 ft 404 kts 228°
2026-04-22 20:05 29.54587 -125.31873 32293 ft 404 kts 228°
2026-04-22 20:06 29.50509 -125.36319 32292 ft 404 kts 228°
2026-04-22 20:06 29.46435 -125.40753 32280 ft 403 kts 229°
2026-04-22 20:07 29.42369 -125.45173 32288 ft 402 kts 229°
2026-04-22 20:07 29.38336 -125.49553 32289 ft 402 kts 228°
2026-04-22 20:08 29.34281 -125.53952 32284 ft 400 kts 229°
2026-04-22 20:08 29.30233 -125.58338 32287 ft 400 kts 229°
2026-04-22 20:09 29.26866 -125.61982 32292 ft 400 kts 229°
2026-04-22 20:09 29.22820 -125.66357 32290 ft 400 kts 229°
2026-04-22 20:10 29.18766 -125.70735 32287 ft 400 kts 228°
2026-04-22 20:10 29.14716 -125.75105 32287 ft 400 kts 228°
2026-04-22 20:11 29.10694 -125.79439 32273 ft 397 kts 229°
2026-04-22 20:11 29.06676 -125.83763 32285 ft 396 kts 229°
2026-04-22 20:12 29.02663 -125.88078 32288 ft 396 kts 229°
2026-04-22 20:12 28.98640 -125.92398 32287 ft 396 kts 229°
2026-04-22 20:13 28.94620 -125.96710 32292 ft 396 kts 228°
2026-04-22 20:13 28.90625 -126.00991 32287 ft 396 kts 228°
2026-04-22 20:14 28.86601 -126.05297 32284 ft 396 kts 228°
2026-04-22 20:14 28.82578 -126.09599 32287 ft 396 kts 228°
2026-04-22 20:15 28.78552 -126.13899 32291 ft 396 kts 228°
2026-04-22 20:15 28.74551 -126.18166 32281 ft 396 kts 228°
2026-04-22 20:16 28.70523 -126.22459 32288 ft 396 kts 228°
2026-04-22 20:16 28.66495 -126.26746 32284 ft 395 kts 228°
2026-04-22 20:17 28.62498 -126.30995 32287 ft 395 kts 228°
2026-04-22 20:17 28.58477 -126.35267 32287 ft 395 kts 227°
2026-04-22 20:18 28.54456 -126.39532 32287 ft 395 kts 227°
2026-04-22 20:18 28.50437 -126.43792 32287 ft 395 kts 227°
2026-04-22 20:19 28.46432 -126.48032 32289 ft 395 kts 227°
2026-04-22 20:19 28.42404 -126.52290 32287 ft 394 kts 227°
2026-04-22 20:20 28.38410 -126.56510 32282 ft 393 kts 227°
2026-04-22 20:20 28.34397 -126.60743 32286 ft 393 kts 227°
2026-04-22 20:21 28.30380 -126.64978 32291 ft 393 kts 227°
2026-04-22 20:21 28.26390 -126.69179 32290 ft 393 kts 227°
2026-04-22 20:22 28.22374 -126.73403 32285 ft 393 kts 227°
2026-04-22 20:22 28.18357 -126.77623 32286 ft 393 kts 227°
2026-04-22 20:23 28.14348 -126.81830 32288 ft 393 kts 227°
2026-04-22 20:23 28.10357 -126.86014 32288 ft 393 kts 227°
2026-04-22 20:24 28.06341 -126.90221 32285 ft 393 kts 227°
2026-04-22 20:24 28.02324 -126.94423 32285 ft 393 kts 226°
2026-04-22 20:25 27.98302 -126.98626 32287 ft 393 kts 226°
2026-04-22 20:25 27.94304 -127.02800 32289 ft 393 kts 226°
2026-04-22 20:26 27.90275 -127.07001 32284 ft 393 kts 226°
2026-04-22 20:26 27.86253 -127.11191 32287 ft 393 kts 226°
2026-04-22 20:27 27.82256 -127.15350 32289 ft 393 kts 226°
2026-04-22 20:27 27.78232 -127.19519 32291 ft 392 kts 226°
2026-04-22 20:28 27.74208 -127.23711 32280 ft 393 kts 226°
2026-04-22 20:28 27.70187 -127.27883 32283 ft 393 kts 226°
2026-04-22 20:29 27.66162 -127.32054 32281 ft 393 kts 226°
2026-04-22 20:29 27.62139 -127.36219 32281 ft 393 kts 226°
2026-04-22 20:30 27.58112 -127.40383 32286 ft 393 kts 226°
2026-04-22 20:30 27.54104 -127.44523 32284 ft 393 kts 226°
2026-04-22 20:31 27.50074 -127.48683 32286 ft 393 kts 226°
2026-04-22 20:31 27.46034 -127.52847 32285 ft 393 kts 226°
2026-04-22 20:32 27.42001 -127.57000 32282 ft 393 kts 226°
2026-04-22 20:32 27.37957 -127.61162 32285 ft 393 kts 226°
2026-04-22 20:33 27.33942 -127.65289 32267 ft 393 kts 225°
2026-04-22 20:33 27.29896 -127.69445 32276 ft 394 kts 225°
2026-04-22 20:34 27.25840 -127.73605 32280 ft 394 kts 225°
2026-04-22 20:34 27.21780 -127.77766 32280 ft 395 kts 225°
2026-04-22 20:35 27.17740 -127.81902 32279 ft 395 kts 225°
2026-04-22 20:35 27.13681 -127.86053 32280 ft 395 kts 225°
2026-04-22 20:36 27.09613 -127.90209 32275 ft 395 kts 225°
2026-04-22 20:36 27.05567 -127.94337 32276 ft 395 kts 225°
2026-04-22 20:37 27.01794 -127.98759 32258 ft 391 kts 240°
2026-04-22 20:37 27.00769 -128.01579 32275 ft 393 kts 255°
2026-04-22 20:37 27.00456 -128.04654 32280 ft 400 kts 264°
2026-04-22 20:38 27.00459 -128.10928 32272 ft 402 kts 266°
2026-04-22 20:38 27.00638 -128.17166 32273 ft 403 kts 267°
2026-04-22 20:39 27.00856 -128.23456 32243 ft 405 kts 267°
2026-04-22 20:39 27.00964 -128.26613 31822 ft 401 kts 267°
2026-04-22 20:39 27.01069 -128.29744 32014 ft 402 kts 267°
2026-04-22 20:39 27.01173 -128.32890 32188 ft 404 kts 267°
2026-04-22 20:40 27.01278 -128.36044 32275 ft 406 kts 267°
2026-04-22 20:40 27.01484 -128.42329 32270 ft 404 kts 267°
2026-04-22 20:41 27.01689 -128.48645 32271 ft 405 kts 267°
2026-04-22 20:41 27.01889 -128.54931 32270 ft 405 kts 267°
2026-04-22 20:42 27.02088 -128.61242 32268 ft 405 kts 267°
2026-04-22 20:42 27.02284 -128.67559 32266 ft 405 kts 266°
2026-04-22 20:43 27.02477 -128.73880 32269 ft 405 kts 266°
2026-04-22 20:43 27.02667 -128.80187 32270 ft 405 kts 266°
2026-04-22 20:44 27.02854 -128.86464 32269 ft 405 kts 266°
2026-04-22 20:44 27.03038 -128.92782 32268 ft 406 kts 266°
2026-04-22 20:45 27.03221 -128.99121 32273 ft 406 kts 266°
2026-04-22 20:45 27.03400 -129.05453 32271 ft 406 kts 266°
2026-04-22 20:46 27.03664 -129.14950 32269 ft 407 kts 266°
2026-04-22 20:46 27.03837 -129.21300 32268 ft 407 kts 266°
2026-04-22 20:47 27.04007 -129.27650 32271 ft 407 kts 266°
2026-04-22 20:47 27.04174 -129.33997 32271 ft 407 kts 266°
2026-04-22 20:48 27.04339 -129.40358 32269 ft 408 kts 266°
2026-04-22 20:48 27.04501 -129.46733 32268 ft 408 kts 266°
2026-04-22 20:49 27.04660 -129.53096 32268 ft 408 kts 266°
2026-04-22 20:49 27.04815 -129.59429 32269 ft 409 kts 266°
2026-04-22 20:50 27.04969 -129.65820 32269 ft 410 kts 266°
2026-04-22 20:50 27.05120 -129.72212 32265 ft 410 kts 266°
2026-04-22 20:51 27.05268 -129.78604 32268 ft 410 kts 266°
2026-04-22 20:51 27.05413 -129.85007 32269 ft 411 kts 266°
2026-04-22 20:52 27.05556 -129.91424 32266 ft 411 kts 266°
2026-04-22 20:52 27.05696 -129.97844 32278 ft 412 kts 266°
2026-04-22 20:53 27.05833 -130.04259 32270 ft 412 kts 266°
2026-04-22 20:53 27.05968 -130.10716 32270 ft 415 kts 266°
2026-04-22 20:54 27.06100 -130.17185 32265 ft 415 kts 266°
2026-04-22 20:54 27.06229 -130.23657 32268 ft 415 kts 266°
2026-04-22 20:55 27.06356 -130.30147 32273 ft 419 kts 266°
2026-04-22 20:55 27.06481 -130.36685 32271 ft 419 kts 266°
2026-04-22 20:56 27.06602 -130.43223 32268 ft 419 kts 266°
2026-04-22 20:56 27.06720 -130.49724 32262 ft 420 kts 266°
2026-04-22 20:57 27.06836 -130.56293 32271 ft 422 kts 266°
2026-04-22 20:57 27.06950 -130.62874 32287 ft 422 kts 267°
2026-04-22 20:58 27.07061 -130.69521 32270 ft 429 kts 267°
2026-04-22 20:58 27.07152 -130.75082 32269 ft 429 kts 267°
2026-04-22 20:59 27.07258 -130.81774 32271 ft 429 kts 267°
2026-04-22 20:59 27.07361 -130.88465 32271 ft 429 kts 267°
2026-04-22 21:00 27.07461 -130.95157 32272 ft 430 kts 267°
2026-04-22 21:00 27.07558 -131.01867 32273 ft 430 kts 267°
2026-04-22 21:01 27.07652 -131.08576 32272 ft 430 kts 267°
2026-04-22 21:01 27.07742 -131.15283 32276 ft 430 kts 266°
2026-04-22 21:02 27.07829 -131.21966 32267 ft 428 kts 266°
2026-04-22 21:02 27.07922 -131.28635 32275 ft 422 kts 265°
2026-04-22 21:03 27.08021 -131.35161 32280 ft 416 kts 264°
2026-04-22 21:03 27.08144 -131.41615 32271 ft 408 kts 262°
2026-04-22 21:04 27.08803 -131.48039 32243 ft 411 kts 263°
2026-04-22 21:04 27.08372 -131.54333 32255 ft 409 kts 262°
2026-04-22 21:05 27.08310 -131.60746 32265 ft 411 kts 264°
2026-04-22 21:05 27.08340 -131.67173 32266 ft 412 kts 264°
2026-04-22 21:06 27.08396 -131.73600 32263 ft 412 kts 264°
2026-04-22 21:06 27.08453 -131.80034 32261 ft 414 kts 265°
2026-04-22 21:07 27.08507 -131.86493 32278 ft 417 kts 265°
2026-04-22 21:07 27.08560 -131.93002 32264 ft 416 kts 265°
2026-04-22 21:08 27.08608 -131.99503 32268 ft 416 kts 264°
2026-04-22 21:08 27.08654 -132.05935 32254 ft 413 kts 264°
2026-04-22 21:09 27.08697 -132.12404 32263 ft 413 kts 264°
2026-04-22 21:09 27.08737 -132.18860 32263 ft 413 kts 264°
2026-04-22 21:10 27.08773 -132.25319 32264 ft 413 kts 264°
2026-04-22 21:10 27.08807 -132.31764 32266 ft 413 kts 264°
2026-04-22 21:11 27.08838 -132.38184 32256 ft 413 kts 264°
2026-04-22 21:11 27.08866 -132.44632 32259 ft 413 kts 264°
2026-04-22 21:12 27.08891 -132.51089 32265 ft 413 kts 264°
2026-04-22 21:12 27.08913 -132.57530 32259 ft 412 kts 264°
2026-04-22 21:13 27.08932 -132.63938 32270 ft 412 kts 264°
2026-04-22 21:13 27.08948 -132.70377 32259 ft 412 kts 264°
2026-04-22 21:14 27.08962 -132.76818 32260 ft 412 kts 264°
2026-04-22 21:14 27.08972 -132.83207 32261 ft 412 kts 264°
2026-04-22 21:15 27.08979 -132.89648 32262 ft 412 kts 264°
2026-04-22 21:15 27.08984 -132.96095 32265 ft 412 kts 264°
2026-04-22 21:16 27.08986 -133.02491 32266 ft 412 kts 264°
2026-04-22 21:16 27.08984 -133.08973 32266 ft 412 kts 263°
2026-04-22 21:17 27.08980 -133.15402 32261 ft 412 kts 263°
2026-04-22 21:17 27.08973 -133.21795 32257 ft 412 kts 263°
2026-04-22 21:18 27.08963 -133.28239 32259 ft 413 kts 263°
2026-04-22 21:18 27.08949 -133.34682 32257 ft 413 kts 263°
2026-04-22 21:19 27.08933 -133.41122 32256 ft 413 kts 263°
2026-04-22 21:19 27.08914 -133.47562 32258 ft 412 kts 263°
2026-04-22 21:20 27.08893 -133.53996 32254 ft 412 kts 263°
2026-04-22 21:20 27.08868 -133.60385 32254 ft 412 kts 263°
2026-04-22 21:21 27.08840 -133.66825 32263 ft 410 kts 263°
2026-04-22 21:21 27.08810 -133.73218 32255 ft 409 kts 263°
2026-04-22 21:22 27.08777 -133.79591 32254 ft 410 kts 263°
2026-04-22 21:22 27.08741 -133.85954 32255 ft 409 kts 263°
2026-04-22 21:23 27.08702 -133.92356 32251 ft 409 kts 263°
2026-04-22 21:23 27.08659 -133.98748 32251 ft 409 kts 263°
2026-04-22 21:24 27.08615 -134.05144 32256 ft 410 kts 263°
2026-04-22 21:24 27.08567 -134.11545 32254 ft 410 kts 263°
2026-04-22 21:25 27.08516 -134.17916 32251 ft 410 kts 263°
2026-04-22 21:25 27.08463 -134.24338 32255 ft 412 kts 264°
2026-04-22 21:26 27.08421 -134.30782 32249 ft 413 kts 263°
2026-04-22 21:26 27.08347 -134.37233 32251 ft 413 kts 264°
2026-04-22 21:27 27.08284 -134.43637 32252 ft 413 kts 264°
2026-04-22 21:27 27.08217 -134.50109 32253 ft 414 kts 264°
2026-04-22 21:28 27.08148 -134.56571 32253 ft 414 kts 264°
2026-04-22 21:28 27.08077 -134.63044 32252 ft 414 kts 264°
2026-04-22 21:29 27.08001 -134.69532 32251 ft 416 kts 264°
2026-04-22 21:29 27.07924 -134.75990 32271 ft 416 kts 264°
2026-04-22 21:30 27.07843 -134.82501 32256 ft 418 kts 264°
2026-04-22 21:30 27.07758 -134.89028 32252 ft 418 kts 264°
2026-04-22 21:31 27.07670 -134.95555 32249 ft 418 kts 264°
2026-04-22 21:31 27.07581 -135.02054 32244 ft 419 kts 264°
2026-04-22 21:32 27.07486 -135.08614 32247 ft 420 kts 264°
2026-04-22 21:32 27.07389 -135.15177 32246 ft 420 kts 264°
2026-04-22 21:33 27.07299 -135.21700 32247 ft 422 kts 265°
2026-04-22 21:33 27.07184 -135.28319 32245 ft 423 kts 265°
2026-04-22 21:34 27.07078 -135.34931 32243 ft 423 kts 265°
2026-04-22 21:34 27.06974 -135.41494 32243 ft 425 kts 265°
2026-04-22 21:35 27.06855 -135.48171 32239 ft 429 kts 265°
2026-04-22 21:35 27.06737 -135.54860 32243 ft 428 kts 265°
2026-04-22 21:36 27.06613 -135.61566 32244 ft 432 kts 266°
2026-04-22 21:36 27.06493 -135.68316 32244 ft 436 kts 266°
2026-04-22 21:37 27.06361 -135.75114 32235 ft 435 kts 266°
2026-04-22 21:37 27.06232 -135.81914 32240 ft 437 kts 267°
2026-04-22 21:38 27.06095 -135.88732 32240 ft 439 kts 267°
2026-04-22 21:38 27.05952 -135.95582 32241 ft 439 kts 267°
2026-04-22 21:39 27.05807 -136.02465 32241 ft 445 kts 268°
2026-04-22 21:39 27.05659 -136.09416 32234 ft 445 kts 268°
2026-04-22 21:40 27.05507 -136.16324 32238 ft 445 kts 268°
2026-04-22 21:40 27.05355 -136.23293 32238 ft 448 kts 269°
2026-04-22 21:41 27.05037 -136.36803 32234 ft 447 kts 269°
2026-04-22 21:42 27.04875 -136.43816 32238 ft 450 kts 269°
2026-04-22 21:42 27.04700 -136.50795 32239 ft 450 kts 269°
2026-04-22 21:43 27.04525 -136.57807 32240 ft 450 kts 269°
2026-04-22 21:43 27.04347 -136.64845 32236 ft 450 kts 269°
2026-04-22 21:44 27.04165 -136.71860 32235 ft 449 kts 269°
2026-04-22 21:44 27.03980 -136.78873 32236 ft 449 kts 269°
2026-04-22 21:45 27.03793 -136.85848 32235 ft 450 kts 269°
2026-04-22 21:45 27.03600 -136.92879 32234 ft 450 kts 269°
2026-04-22 21:46 27.03406 -136.99870 32231 ft 450 kts 269°
2026-04-22 21:46 27.03207 -137.06874 32231 ft 449 kts 269°
2026-04-22 21:47 27.03005 -137.13881 32234 ft 449 kts 269°
2026-04-22 21:47 27.02799 -137.20888 32234 ft 448 kts 269°
2026-04-22 21:48 27.02592 -137.27829 32232 ft 447 kts 269°
2026-04-22 21:48 27.02380 -137.34813 32232 ft 448 kts 269°
2026-04-22 21:49 27.02165 -137.41800 32228 ft 447 kts 269°
2026-04-22 21:49 27.01946 -137.48775 32227 ft 447 kts 269°
2026-04-22 21:50 27.01726 -137.55703 32227 ft 447 kts 269°
2026-04-22 21:50 27.01501 -137.62668 32229 ft 446 kts 269°
2026-04-22 21:51 27.01273 -137.69609 32224 ft 445 kts 269°
2026-04-22 21:52 27.00926 -137.80017 32225 ft 445 kts 269°
2026-04-22 21:52 27.00692 -137.86877 32225 ft 441 kts 269°
2026-04-22 21:53 27.00455 -137.93759 32217 ft 442 kts 269°
2026-04-22 21:53 27.00213 -138.00668 32227 ft 443 kts 269°
2026-04-22 21:54 26.99969 -138.07553 32224 ft 440 kts 269°
2026-04-22 21:54 26.99721 -138.14432 32226 ft 441 kts 269°
2026-04-22 21:55 26.99115 -138.21255 32208 ft 442 kts 254°
2026-04-22 21:55 26.96953 -138.27686 32212 ft 442 kts 251°
2026-04-22 21:56 26.94724 -138.34120 32226 ft 442 kts 250°
2026-04-22 21:56 26.92466 -138.40554 32223 ft 443 kts 250°
2026-04-22 21:57 26.90203 -138.46984 32225 ft 442 kts 250°
2026-04-22 21:57 26.87959 -138.53348 32222 ft 441 kts 250°
2026-04-22 21:58 26.85700 -138.59747 32222 ft 442 kts 250°
2026-04-22 21:58 26.83434 -138.66151 32225 ft 441 kts 250°
2026-04-22 21:59 26.81174 -138.72530 32222 ft 440 kts 250°
2026-04-22 21:59 26.79001 -138.78655 32246 ft 441 kts 250°
2026-04-22 21:59 26.77878 -138.81813 32567 ft 441 kts 250°
2026-04-22 22:00 26.76745 -138.85000 32882 ft 441 kts 250°
2026-04-22 22:00 26.75614 -138.88176 33202 ft 440 kts 250°
2026-04-22 22:00 26.74479 -138.91363 33520 ft 440 kts 250°
2026-04-22 22:00 26.73344 -138.94546 33856 ft 439 kts 250°
2026-04-22 22:01 26.72212 -138.97719 34167 ft 439 kts 250°
2026-04-22 22:01 26.69954 -139.04041 34206 ft 439 kts 250°
2026-04-22 22:02 26.67686 -139.10378 34225 ft 438 kts 250°
2026-04-22 22:02 26.65418 -139.16707 34219 ft 436 kts 250°
2026-04-22 22:03 26.63541 -139.21936 34220 ft 436 kts 250°
2026-04-22 22:03 26.60907 -139.29262 34216 ft 436 kts 250°
2026-04-22 22:04 26.58646 -139.35541 34201 ft 434 kts 250°
2026-04-22 22:04 26.56751 -139.40794 34218 ft 435 kts 250°
2026-04-22 22:05 26.54493 -139.47044 34217 ft 435 kts 250°
2026-04-22 22:05 26.52223 -139.53317 34215 ft 435 kts 250°
2026-04-22 22:06 26.49975 -139.59520 34209 ft 433 kts 249°
2026-04-22 22:06 26.47712 -139.65756 34211 ft 433 kts 249°
2026-04-22 22:07 26.45450 -139.71979 34210 ft 434 kts 250°
2026-04-22 22:07 26.43181 -139.78211 34209 ft 432 kts 250°
2026-04-22 22:08 26.40925 -139.84395 34209 ft 431 kts 250°
2026-04-22 22:08 26.38663 -139.90588 34209 ft 431 kts 250°
2026-04-22 22:09 26.36392 -139.96798 34209 ft 431 kts 250°
2026-04-22 22:09 26.34128 -140.02977 34200 ft 429 kts 250°
2026-04-22 22:10 26.31863 -140.09148 34207 ft 430 kts 250°
2026-04-22 22:10 26.29594 -140.15320 34209 ft 430 kts 250°
2026-04-22 22:11 26.27334 -140.21462 34209 ft 430 kts 250°
2026-04-22 22:11 26.25063 -140.27619 34206 ft 429 kts 250°
2026-04-22 22:12 26.22784 -140.33791 34190 ft 429 kts 250°
2026-04-22 22:12 26.20505 -140.39953 34213 ft 430 kts 250°
2026-04-22 22:13 26.18236 -140.46081 34204 ft 430 kts 250°
2026-04-22 22:13 26.15959 -140.52217 34199 ft 430 kts 250°
2026-04-22 22:14 26.13672 -140.58372 34203 ft 430 kts 250°
2026-04-22 22:14 26.11381 -140.64530 34196 ft 430 kts 250°
2026-04-22 22:15 26.09100 -140.70650 34202 ft 430 kts 250°
2026-04-22 22:15 26.06802 -140.76806 34198 ft 431 kts 250°
2026-04-22 22:16 26.04500 -140.82964 34199 ft 430 kts 250°
2026-04-22 22:16 26.02207 -140.89090 34207 ft 431 kts 250°
2026-04-22 22:17 25.99894 -140.95259 34200 ft 432 kts 250°
2026-04-22 22:17 25.97579 -141.01423 34200 ft 431 kts 250°
2026-04-22 22:18 25.95277 -141.07544 34194 ft 431 kts 250°
2026-04-22 22:18 25.92963 -141.13686 34200 ft 431 kts 250°
2026-04-22 22:19 25.90646 -141.19829 34198 ft 431 kts 250°
2026-04-22 22:19 25.88356 -141.25889 34195 ft 431 kts 250°
2026-04-22 22:20 25.86020 -141.32063 34199 ft 431 kts 250°
2026-04-22 22:20 25.83697 -141.38194 34184 ft 431 kts 250°
2026-04-22 22:21 25.81362 -141.44346 34190 ft 431 kts 250°
2026-04-22 22:21 25.79039 -141.50459 34192 ft 431 kts 250°
2026-04-22 22:22 25.76716 -141.56561 34195 ft 431 kts 250°
2026-04-22 22:22 25.74378 -141.62694 34191 ft 432 kts 250°
2026-04-22 22:23 25.72030 -141.68843 34189 ft 433 kts 250°
2026-04-22 22:23 25.69679 -141.74992 34181 ft 433 kts 250°
2026-04-22 22:24 25.67324 -141.81142 34192 ft 433 kts 250°
2026-04-22 22:24 25.64982 -141.87248 34190 ft 434 kts 250°
2026-04-22 22:25 25.62614 -141.93415 34183 ft 433 kts 250°
2026-04-22 22:25 25.60245 -141.99573 34186 ft 434 kts 250°
2026-04-22 22:26 25.57874 -142.05727 34186 ft 434 kts 250°
2026-04-22 22:26 25.55519 -142.11833 34187 ft 433 kts 250°
2026-04-22 22:27 25.53143 -142.17982 34186 ft 433 kts 250°
2026-04-22 22:27 25.50770 -142.24117 34187 ft 434 kts 250°
2026-04-22 22:28 25.48408 -142.30211 34190 ft 434 kts 250°
2026-04-22 22:28 25.46016 -142.36375 34188 ft 435 kts 250°
2026-04-22 22:29 25.43622 -142.42536 34178 ft 435 kts 249°
2026-04-22 22:29 25.41228 -142.48687 34180 ft 435 kts 249°
2026-04-22 22:30 25.38849 -142.54791 34178 ft 435 kts 249°
2026-04-22 22:30 25.36445 -142.60949 34182 ft 436 kts 249°
2026-04-22 22:31 25.34040 -142.67101 34182 ft 436 kts 249°
2026-04-22 22:31 25.31628 -142.73263 34176 ft 436 kts 249°
2026-04-22 22:32 25.29231 -142.79377 34161 ft 435 kts 249°
2026-04-22 22:32 25.26815 -142.85530 34176 ft 436 kts 249°
2026-04-22 22:33 25.24402 -142.91668 34175 ft 436 kts 249°
2026-04-22 22:33 25.21996 -142.97777 34176 ft 435 kts 249°
2026-04-22 22:34 25.19578 -143.03909 34174 ft 436 kts 249°
2026-04-22 22:34 25.17168 -143.10013 34173 ft 437 kts 249°
2026-04-22 22:35 25.14724 -143.16193 34164 ft 436 kts 249°
2026-04-22 22:35 25.12302 -143.22307 34172 ft 435 kts 249°
2026-04-22 22:36 25.09874 -143.28432 34168 ft 436 kts 249°
2026-04-22 22:36 25.07431 -143.34581 34169 ft 437 kts 249°
2026-04-22 22:37 25.04989 -143.40720 34171 ft 437 kts 249°
2026-04-22 22:37 25.02557 -143.46826 34168 ft 437 kts 249°
2026-04-22 22:38 25.00106 -143.52971 34153 ft 437 kts 249°
2026-04-22 22:38 24.97653 -143.59113 34170 ft 436 kts 249°
2026-04-22 22:39 24.95222 -143.65190 34165 ft 436 kts 249°
2026-04-22 22:39 24.92767 -143.71319 34168 ft 436 kts 249°
2026-04-22 22:40 24.90325 -143.77419 34171 ft 436 kts 250°
2026-04-22 22:40 24.87866 -143.83532 34167 ft 434 kts 249°
2026-04-22 22:41 24.85429 -143.89585 34152 ft 434 kts 249°
2026-04-22 22:41 24.82982 -143.95660 34160 ft 434 kts 249°
2026-04-22 22:42 24.80531 -144.01733 34159 ft 434 kts 249°
2026-04-22 22:42 24.78069 -144.07825 34158 ft 436 kts 249°
2026-04-22 22:43 24.75617 -144.13886 34161 ft 435 kts 249°
2026-04-22 22:43 24.73152 -144.19969 34159 ft 435 kts 250°
2026-04-22 22:44 24.70682 -144.26064 34164 ft 435 kts 250°
2026-04-22 22:44 24.68214 -144.32139 34159 ft 436 kts 250°
2026-04-22 22:45 24.65735 -144.38234 34154 ft 436 kts 250°
2026-04-22 22:45 24.63265 -144.44301 34156 ft 437 kts 250°
2026-04-22 22:46 24.60781 -144.50395 34158 ft 436 kts 250°
2026-04-22 22:46 24.58295 -144.56483 34157 ft 435 kts 250°
2026-04-22 22:47 24.55813 -144.62556 34158 ft 435 kts 250°
2026-04-22 22:47 24.53341 -144.68594 34145 ft 437 kts 250°
2026-04-22 22:48 24.50839 -144.74699 34153 ft 439 kts 250°
2026-04-22 22:48 24.48329 -144.80813 34155 ft 438 kts 250°
2026-04-22 22:49 24.45835 -144.86880 34148 ft 438 kts 250°
2026-04-22 22:49 24.43328 -144.92972 34148 ft 438 kts 250°
2026-04-22 22:50 24.40865 -144.98935 34150 ft 438 kts 250°
2026-04-22 22:50 24.38312 -145.05110 34132 ft 437 kts 250°
2026-04-22 22:51 24.35790 -145.11217 34148 ft 439 kts 250°
2026-04-22 22:51 24.33266 -145.17325 34152 ft 439 kts 250°
2026-04-22 22:52 24.30760 -145.23380 34151 ft 439 kts 250°
2026-04-22 22:52 24.28228 -145.29490 34141 ft 438 kts 250°
2026-04-22 22:53 24.25790 -145.35365 34147 ft 438 kts 250°
2026-04-22 22:53 24.23191 -145.41619 34146 ft 438 kts 250°
2026-04-22 22:54 24.20655 -145.47715 34145 ft 440 kts 250°
2026-04-22 22:54 24.18130 -145.53775 34146 ft 439 kts 250°
2026-04-22 22:55 24.16019 -145.58835 34146 ft 438 kts 250°
2026-04-22 22:55 24.12209 -145.67953 34146 ft 439 kts 250°
2026-04-22 22:56 24.09663 -145.74037 34143 ft 439 kts 250°
2026-04-22 22:56 24.07134 -145.80070 34138 ft 439 kts 250°
2026-04-22 22:57 24.04586 -145.86143 34143 ft 439 kts 250°
2026-04-22 22:57 24.02027 -145.92232 34140 ft 439 kts 250°
2026-04-22 22:58 23.99491 -145.98259 34140 ft 439 kts 250°
2026-04-22 22:58 23.96937 -146.04321 34140 ft 439 kts 250°
2026-04-22 22:59 23.94377 -146.10388 34140 ft 439 kts 250°
2026-04-22 22:59 23.91834 -146.16408 34141 ft 439 kts 250°
2026-04-22 23:00 23.89275 -146.22458 34130 ft 439 kts 250°
2026-04-22 23:00 23.86702 -146.28532 34138 ft 439 kts 250°
2026-04-22 23:01 23.84134 -146.34587 34139 ft 440 kts 250°
2026-04-22 23:01 23.81576 -146.40610 34136 ft 440 kts 250°
2026-04-22 23:02 23.78999 -146.46670 34135 ft 440 kts 250°
2026-04-22 23:02 23.76414 -146.52738 34132 ft 440 kts 250°
2026-04-22 23:03 23.74546 -146.57121 34128 ft 439 kts 250°
2026-04-22 23:03 23.71885 -146.63357 34124 ft 440 kts 250°
2026-04-22 23:04 23.69296 -146.69413 34128 ft 440 kts 250°
2026-04-22 23:04 23.66706 -146.75467 34128 ft 440 kts 250°
2026-04-22 23:05 23.64132 -146.81474 34129 ft 440 kts 250°
2026-04-22 23:05 23.61532 -146.87535 34121 ft 441 kts 249°
2026-04-22 23:06 23.58926 -146.93602 34127 ft 441 kts 249°
2026-04-22 23:06 23.56339 -146.99615 34125 ft 441 kts 249°
2026-04-22 23:07 23.53728 -147.05678 34125 ft 441 kts 250°
2026-04-22 23:07 23.51117 -147.11732 34125 ft 441 kts 249°
2026-04-22 23:08 23.48496 -147.17802 34122 ft 442 kts 249°
2026-04-22 23:08 23.45890 -147.23829 34127 ft 442 kts 249°
2026-04-22 23:09 23.43267 -147.29888 34123 ft 442 kts 249°
2026-04-22 23:09 23.40643 -147.35942 34129 ft 442 kts 249°
2026-04-22 23:10 23.38015 -147.41996 34117 ft 443 kts 249°
2026-04-22 23:10 23.35392 -147.48031 34127 ft 444 kts 249°
2026-04-22 23:11 23.32752 -147.54098 34124 ft 443 kts 249°
2026-04-22 23:11 23.30111 -147.60159 34124 ft 443 kts 249°
2026-04-22 23:12 23.27473 -147.66207 34120 ft 444 kts 249°
2026-04-22 23:12 23.24815 -147.72290 34125 ft 445 kts 249°
2026-04-22 23:13 23.22158 -147.78367 34124 ft 445 kts 249°
2026-04-22 23:13 23.19498 -147.84441 34119 ft 445 kts 249°
2026-04-22 23:14 23.16855 -147.90467 34124 ft 445 kts 249°
2026-04-22 23:14 23.14181 -147.96558 34123 ft 446 kts 249°
2026-04-22 23:15 23.11509 -148.02635 34123 ft 446 kts 249°
2026-04-22 23:15 23.08828 -148.08727 34124 ft 446 kts 249°
2026-04-22 23:16 23.06164 -148.14771 34122 ft 446 kts 249°
2026-04-22 23:16 23.03485 -148.20842 34118 ft 446 kts 249°
2026-04-22 23:17 23.00794 -148.26931 34122 ft 447 kts 249°
2026-04-22 23:17 22.98101 -148.33020 34122 ft 447 kts 249°
2026-04-22 23:18 22.95403 -148.39110 34123 ft 447 kts 249°
2026-04-22 23:18 22.92714 -148.45174 34122 ft 447 kts 249°
2026-04-22 23:19 22.90015 -148.51249 34118 ft 447 kts 249°
2026-04-22 23:19 22.87317 -148.57318 34123 ft 447 kts 249°
2026-04-22 23:20 22.84613 -148.63393 34123 ft 446 kts 248°
2026-04-22 23:20 22.81896 -148.69488 34119 ft 449 kts 248°
2026-04-22 23:21 22.79198 -148.75533 34121 ft 448 kts 248°
2026-04-22 23:21 22.76472 -148.81634 34121 ft 448 kts 248°
2026-04-22 23:22 22.73773 -148.87666 34118 ft 448 kts 248°
2026-04-22 23:22 22.71039 -148.93770 34118 ft 448 kts 248°
2026-04-22 23:23 22.68311 -148.99852 34119 ft 448 kts 248°
2026-04-22 23:23 22.65581 -149.05930 34109 ft 448 kts 248°
2026-04-22 23:24 22.62869 -149.11962 34123 ft 449 kts 248°
2026-04-22 23:24 22.60128 -149.18051 34115 ft 449 kts 248°
2026-04-22 23:25 22.57387 -149.24131 34119 ft 449 kts 248°
2026-04-22 23:25 22.54645 -149.30207 34119 ft 449 kts 248°
2026-04-22 23:26 22.51927 -149.36222 34114 ft 447 kts 248°
2026-04-22 23:26 22.49195 -149.42262 34116 ft 447 kts 248°
2026-04-22 23:27 22.46455 -149.48311 34104 ft 446 kts 248°
2026-04-22 23:27 22.43727 -149.54327 34118 ft 448 kts 248°
2026-04-22 23:28 22.40976 -149.60385 34112 ft 448 kts 248°
2026-04-22 23:28 22.38230 -149.66423 34114 ft 446 kts 248°
2026-04-22 23:29 22.35509 -149.72403 34112 ft 446 kts 248°
2026-04-22 23:29 22.32768 -149.78416 34112 ft 446 kts 248°
2026-04-22 23:30 22.30012 -149.84457 34114 ft 446 kts 248°
2026-04-22 23:30 22.27284 -149.90430 34111 ft 446 kts 248°
2026-04-22 23:31 22.24545 -149.96420 34111 ft 445 kts 247°
2026-04-22 23:31 22.21800 -150.02415 34112 ft 445 kts 247°
2026-04-22 23:32 22.19053 -150.08405 34112 ft 445 kts 247°
2026-04-22 23:32 22.16325 -150.14350 34115 ft 445 kts 247°
2026-04-22 23:33 22.13566 -150.20352 34112 ft 445 kts 247°
2026-04-22 23:33 22.10816 -150.26331 34112 ft 445 kts 247°
2026-04-22 23:34 22.08062 -150.32309 34115 ft 445 kts 247°
2026-04-22 23:34 22.05298 -150.38303 34109 ft 447 kts 247°
2026-04-22 23:35 22.02547 -150.44261 34112 ft 447 kts 247°
2026-04-22 23:35 21.99774 -150.50260 34111 ft 446 kts 247°
2026-04-22 23:36 21.97000 -150.56255 34111 ft 446 kts 247°
2026-04-22 23:36 21.94239 -150.62215 34111 ft 445 kts 247°
2026-04-22 23:37 21.91475 -150.68173 34108 ft 442 kts 247°
2026-04-22 23:37 21.88725 -150.74094 34108 ft 443 kts 247°
2026-04-22 23:38 21.85958 -150.80046 34100 ft 444 kts 246°
2026-04-22 23:38 21.83203 -150.85965 34107 ft 445 kts 246°
2026-04-22 23:39 21.80421 -150.91938 34108 ft 445 kts 246°
2026-04-22 23:39 21.77643 -150.97893 34108 ft 446 kts 246°
2026-04-22 23:40 21.74878 -151.03816 34105 ft 446 kts 246°
2026-04-22 23:40 21.72066 -151.09832 34105 ft 446 kts 246°
2026-04-22 23:41 21.69291 -151.15760 34109 ft 446 kts 246°
2026-04-22 23:41 21.66520 -151.21674 34092 ft 446 kts 246°
2026-04-22 23:42 21.63698 -151.27691 34106 ft 448 kts 246°
2026-04-22 23:42 21.60887 -151.33678 34102 ft 448 kts 246°
2026-04-22 23:43 21.58095 -151.39618 34102 ft 448 kts 246°
2026-04-22 23:43 21.55280 -151.45595 34103 ft 448 kts 245°
2026-04-22 23:44 21.52390 -151.51535 34102 ft 448 kts 245°
2026-04-22 23:44 21.49992 -151.56482 34103 ft 451 kts 245°
2026-04-22 23:45 21.47089 -151.62467 34101 ft 451 kts 245°
2026-04-22 23:45 21.44192 -151.68435 34107 ft 451 kts 245°
2026-04-22 23:46 21.41277 -151.74430 34103 ft 452 kts 245°
2026-04-22 23:46 21.38383 -151.80378 34103 ft 452 kts 245°
2026-04-22 23:47 21.35471 -151.86356 34102 ft 452 kts 245°
2026-04-22 23:47 21.32552 -151.92341 34102 ft 452 kts 245°
2026-04-22 23:48 21.29650 -151.98285 34106 ft 452 kts 245°
2026-04-22 23:48 21.26731 -152.04257 34098 ft 452 kts 245°
2026-04-22 23:49 21.23809 -152.10227 34091 ft 452 kts 245°
2026-04-22 23:49 21.20880 -152.16206 34102 ft 453 kts 245°
2026-04-22 23:50 21.17961 -152.22158 34106 ft 455 kts 245°
2026-04-22 23:50 21.15013 -152.28163 34097 ft 455 kts 245°
2026-04-22 23:51 21.12052 -152.34187 34096 ft 455 kts 245°
2026-04-22 23:51 21.09097 -152.40192 34099 ft 455 kts 245°
2026-04-22 23:52 21.06160 -152.46154 34094 ft 455 kts 245°
2026-04-22 23:52 21.03194 -152.52167 34094 ft 455 kts 245°
2026-04-22 23:53 21.00224 -152.58182 34094 ft 457 kts 245°
2026-04-22 23:53 20.97249 -152.64203 34094 ft 457 kts 245°
2026-04-22 23:54 20.94294 -152.70173 34096 ft 457 kts 245°
2026-04-22 23:54 20.91307 -152.76203 34098 ft 459 kts 245°
2026-04-22 23:55 20.88315 -152.82236 34092 ft 459 kts 245°
2026-04-22 23:55 20.85338 -152.88235 34092 ft 459 kts 245°
2026-04-22 23:56 20.82338 -152.94274 34097 ft 460 kts 245°
2026-04-22 23:56 20.79663 -153.00452 34085 ft 454 kts 259°
2026-04-22 23:57 20.78778 -153.07120 34076 ft 454 kts 265°
2026-04-22 23:57 20.78042 -153.13823 34091 ft 452 kts 265°
2026-04-22 23:58 20.77359 -153.20374 34095 ft 447 kts 265°
2026-04-22 23:58 20.76670 -153.27000 34096 ft 447 kts 265°
2026-04-22 23:59 20.75983 -153.33580 34094 ft 447 kts 265°
2026-04-22 23:59 20.75289 -153.40199 34094 ft 447 kts 265°
2026-04-23 00:00 20.74244 -153.50124 34097 ft 448 kts 265°
2026-04-23 00:01 20.73544 -153.56736 34097 ft 448 kts 265°
2026-04-23 00:01 20.72847 -153.63309 34092 ft 448 kts 265°
2026-04-23 00:02 20.72142 -153.69925 34092 ft 448 kts 265°
2026-04-23 00:02 20.71432 -153.76558 34091 ft 448 kts 265°
2026-04-23 00:03 20.70725 -153.83142 34089 ft 448 kts 265°
2026-04-23 00:03 20.70012 -153.89763 34089 ft 448 kts 265°
2026-04-23 00:04 20.69296 -153.96388 34089 ft 448 kts 265°
2026-04-23 00:04 20.68577 -154.03007 34082 ft 448 kts 265°
2026-04-23 00:05 20.67859 -154.09603 34081 ft 451 kts 265°
2026-04-23 00:05 20.67131 -154.16260 34087 ft 451 kts 265°
2026-04-23 00:06 20.66402 -154.22911 34089 ft 451 kts 265°
2026-04-23 00:06 20.65669 -154.29565 34085 ft 451 kts 265°
2026-04-23 00:07 20.64934 -154.36217 34090 ft 451 kts 265°
2026-04-23 00:07 20.64199 -154.42841 34087 ft 451 kts 265°
2026-04-23 00:08 20.63459 -154.49500 34085 ft 451 kts 265°
2026-04-23 00:08 20.62716 -154.56146 34084 ft 451 kts 265°
2026-04-23 00:09 20.62016 -154.62395 34090 ft 425 kts 265°
2026-04-23 00:09 20.61318 -154.68604 34089 ft 427 kts 265°
2026-04-23 00:10 20.60612 -154.74863 34092 ft 415 kts 265°
2026-04-23 00:10 20.59933 -154.80874 34084 ft 409 kts 265°
2026-04-23 00:11 20.59247 -154.86920 34078 ft 409 kts 264°
2026-04-23 00:11 20.58768 -154.92945 34067 ft 406 kts 276°
2026-04-23 00:12 20.59529 -154.98912 33656 ft 407 kts 273°
2026-04-23 00:12 20.59488 -155.01959 32754 ft 416 kts 262°
2026-04-23 00:12 20.58928 -155.04970 31830 ft 425 kts 262°
2026-04-23 00:12 20.58485 -155.08135 30922 ft 434 kts 263°
2026-04-23 00:13 20.58056 -155.11336 30018 ft 439 kts 263°
2026-04-23 00:13 20.57616 -155.14595 28985 ft 446 kts 263°
2026-04-23 00:13 20.57169 -155.17889 27961 ft 452 kts 262°
2026-04-23 00:13 20.56713 -155.21238 27022 ft 457 kts 262°
2026-04-23 00:14 20.56255 -155.24594 26472 ft 452 kts 262°
2026-04-23 00:14 20.55805 -155.27892 25963 ft 447 kts 262°
2026-04-23 00:14 20.55359 -155.31155 25409 ft 443 kts 262°
2026-04-23 00:14 20.54921 -155.34355 24867 ft 439 kts 262°
2026-04-23 00:15 20.54474 -155.37613 24312 ft 436 kts 262°
2026-04-23 00:15 20.54041 -155.40767 23778 ft 434 kts 262°
2026-04-23 00:15 20.53608 -155.43916 23148 ft 423 kts 263°
2026-04-23 00:15 20.53188 -155.46966 22630 ft 407 kts 263°
2026-04-23 00:16 20.52782 -155.49915 22145 ft 398 kts 263°
2026-04-23 00:16 20.52381 -155.52821 21656 ft 392 kts 263°
2026-04-23 00:16 20.51986 -155.55676 21192 ft 385 kts 263°
2026-04-23 00:16 20.51599 -155.58477 20740 ft 379 kts 263°
2026-04-23 00:17 20.51214 -155.61255 20292 ft 374 kts 263°
2026-04-23 00:17 20.50838 -155.63982 19861 ft 370 kts 263°
2026-04-23 00:17 20.50459 -155.66710 19432 ft 376 kts 263°
2026-04-23 00:17 20.50078 -155.69458 18993 ft 380 kts 263°
2026-04-23 00:18 20.49686 -155.72251 18545 ft 381 kts 263°
2026-04-23 00:18 20.49296 -155.75046 18009 ft 378 kts 263°
2026-04-23 00:18 20.48912 -155.77798 17551 ft 371 kts 263°
2026-04-23 00:18 20.48538 -155.80475 17133 ft 365 kts 263°
2026-04-23 00:19 20.48164 -155.83154 16729 ft 359 kts 263°
2026-04-23 00:19 20.47797 -155.85774 16332 ft 359 kts 263°
2026-04-23 00:19 20.47426 -155.88430 16094 ft 363 kts 263°
2026-04-23 00:19 20.47243 -155.91115 16000 ft 361 kts 274°
2026-04-23 00:20 20.47354 -155.93805 15426 ft 366 kts 274°
2026-04-23 00:20 20.47456 -155.96480 15011 ft 365 kts 274°
2026-04-23 00:20 20.47557 -155.99169 14623 ft 363 kts 274°
2026-04-23 00:20 20.47652 -156.01861 14223 ft 361 kts 275°
2026-04-23 00:21 20.47747 -156.04533 13839 ft 359 kts 274°
2026-04-23 00:21 20.47843 -156.07189 13402 ft 357 kts 274°
2026-04-23 00:21 20.47941 -156.09851 12806 ft 360 kts 275°
2026-04-23 00:21 20.48036 -156.12543 12092 ft 366 kts 273°
2026-04-23 00:22 20.48129 -156.15198 11384 ft 360 kts 272°
2026-04-23 00:22 20.48221 -156.17840 10882 ft 348 kts 272°
2026-04-23 00:22 20.48310 -156.20341 10685 ft 328 kts 272°
2026-04-23 00:22 20.48395 -156.22701 10533 ft 308 kts 272°
2026-04-23 00:23 20.48475 -156.24919 10390 ft 292 kts 272°
2026-04-23 00:23 20.48550 -156.27056 10260 ft 284 kts 272°
2026-04-23 00:23 20.48620 -156.29128 10118 ft 275 kts 272°
2026-04-23 00:23 20.48688 -156.31140 9918 ft 270 kts 272°
2026-04-23 00:24 20.48756 -156.33132 9616 ft 267 kts 272°
2026-04-23 00:24 20.48824 -156.35110 9310 ft 266 kts 272°
2026-04-23 00:24 20.48891 -156.37075 9024 ft 264 kts 272°
2026-04-23 00:24 20.48957 -156.39000 8744 ft 262 kts 272°
2026-04-23 00:25 20.49251 -156.40927 8426 ft 267 kts 292°
2026-04-23 00:25 20.50275 -156.42574 8112 ft 270 kts 316°
2026-04-23 00:25 20.51742 -156.43831 7838 ft 271 kts 322°
2026-04-23 00:25 20.53255 -156.45039 7554 ft 272 kts 323°
2026-04-23 00:26 20.54782 -156.46234 7269 ft 269 kts 323°
2026-04-23 00:26 20.56276 -156.47389 6944 ft 262 kts 324°
2026-04-23 00:26 20.57753 -156.48520 6503 ft 260 kts 324°
2026-04-23 00:26 20.59220 -156.49644 6051 ft 258 kts 324°
2026-04-23 00:27 20.60652 -156.50740 5723 ft 249 kts 325°
2026-04-23 00:27 20.62020 -156.51786 5398 ft 243 kts 326°
2026-04-23 00:27 20.63386 -156.52817 5214 ft 233 kts 325°
2026-04-23 00:27 20.64655 -156.53778 5132 ft 213 kts 326°
2026-04-23 00:28 20.65809 -156.54664 5013 ft 195 kts 326°
2026-04-23 00:28 20.66903 -156.55501 4915 ft 192 kts 326°
2026-04-23 00:28 20.67994 -156.56329 4867 ft 193 kts 326°
2026-04-23 00:28 20.69157 -156.57036 4487 ft 193 kts 346°
2026-04-23 00:29 20.70453 -156.56969 4221 ft 184 kts 21°
2026-04-23 00:29 20.71594 -156.56326 4017 ft 187 kts 30°
2026-04-23 00:29 20.72690 -156.55608 3790 ft 186 kts 31°
2026-04-23 00:29 20.73773 -156.54861 3553 ft 185 kts 33°
2026-04-23 00:30 20.74841 -156.54100 3333 ft 185 kts 33°
2026-04-23 00:30 20.75905 -156.53330 3106 ft 182 kts 33°
2026-04-23 00:30 20.76942 -156.52566 2853 ft 180 kts 33°
2026-04-23 00:30 20.77961 -156.51802 2657 ft 178 kts 33°
2026-04-23 00:31 20.78966 -156.51051 2430 ft 171 kts 33°
2026-04-23 00:31 20.79611 -156.50575 2290 ft 169 kts 33°
2026-04-23 00:31 20.80555 -156.49866 2047 ft 161 kts 34°
2026-04-23 00:31 20.81713 -156.48976 1673 ft 150 kts 35°
2026-04-23 00:32 20.82528 -156.48288 1497 ft 147 kts 35°
2026-04-23 00:32 20.83096 -156.47867 1384 ft 147 kts 33°
2026-04-23 00:32 20.83975 -156.47300 1204 ft 147 kts 30°
2026-04-23 00:32 20.84836 -156.46725 1022 ft 145 kts 34°
2026-04-23 00:33 20.85665 -156.46083 797 ft 149 kts 32°
2026-04-23 00:33 20.86511 -156.45453 636 ft 149 kts 32°
2026-04-23 00:33 20.87347 -156.44816 453 ft 146 kts 33°
2026-04-23 00:33 20.88157 -156.44203 270 ft 141 kts 32°
2026-04-23 00:34 20.88923 -156.43630 86 ft 130 kts 34°
2026-04-23 00:34 20.89620 -156.43111 46 ft 106 kts 35°
2026-04-23 00:34 20.89942 -156.42882 46 ft 31 kts 11°
2026-04-23 00:34 20.89989 -156.42990 47 ft 18 kts 219°
2026-04-23 00:35 20.89871 -156.43081 47 ft 26 kts 214°
2026-04-23 00:35 20.89745 -156.43174 47 ft 15 kts 213°
2026-04-23 00:35 20.89652 -156.43243 45 ft 21 kts 214°
2026-04-23 00:35 20.89498 -156.43357 47 ft 30 kts 215°
2026-04-23 00:36 20.89352 -156.43467 44 ft 21 kts 216°
2026-04-23 00:36 20.89237 -156.43553 47 ft 22 kts 214°
2026-04-23 00:36 20.89112 -156.43647 47 ft 19 kts 215°
2026-04-23 00:36 20.89024 -156.43713 47 ft 12 kts 216°
2026-04-23 00:37 20.89015 -156.43776 44 ft 12 kts 300°
2026-04-23 00:37 20.89044 -156.43825 47 ft 7 kts 304°
2026-04-23 00:37 20.89055 -156.43841 45 ft 2 kts 304°
2026-04-23 00:37 20.89057 -156.43845 45 ft 0 kts 304°